SCP
0 0 0 -0 0 0 0 0 0 0 0 0 0 0 0 0 0 0 0 0 0 0 0 0 0 0 0 0 0 0 0 0 0 0 0 0 0 0 0 0 0 0 0 0
-0 0 0 0 0 0 0 0 0 0 0 0 0 0 0 0 0 0 0 0 0 0 0 0 0 0 0 0 0 0 0 0 0 0 0 0 0 0 0 0 0 0 0 0
0 0 0 0 0 0 0 0 0 0 0 0 0 0 0 0 0 0 0 0 0 0 0 0 0 0 0 0 0 0 0 0 0 0 0 0 0 0 -0 0 0 0 0 0
0 0 0 0 0 0 0 0 0 0 0 0 0 0 0 0 0 0 0 0 0 0 0 0 0 0 0 0 0 0 0 0 0 0 0 0 0 0 -0 -0 0 0 0 0
0 0 0 0 0 0 0 0 0 0 0 0 0 0 0 0 0 0 0 0 0 0 0 0 0 0 0 0 0 0 0 0 0 0 0 0 0 0 0 0 0 0 0 0
0 0 0 0 0 0 0 0 0 0 0 0 0 0 0 0 0 0 0 0 0 0 0 0 0 0 0 0 0 0 0 0 0 0 0 0 0 0 0 0 0 0 0 0
-0 -0 0 0 0 0 0 0 0 0 0 0 0 0 0 0 0 0 0 0 0 0 0 0 0 0 0 0 0 0 0 0 0 0 0 0 0 0 0 0 0 0 0 0
0 0 0 0 0 0 0 0 0 0 0 0 0 0 0 0 0 0 0 0 0 0 0 0 0 0 0 0 0 0 0 0 0 0 0 0 0 0 0 0 0 0 0 0
0 0 0 0 0 0 0 0 0 0 0 0 0 0 0 0 0 0 0 0 0 0 0 0 0 0 0 0 0 0 0 0 0 0 0 0 0 0 0 0 0 0 0 0
0 0 0 0 0 0 0 0 0 0 0 0 0 0 0 0 0 0 0 0 0 0 0 0 0 0 0 0 0 0 0 0 0 0 0 0 0 0 0 0 0 0 0 0
0 0 0 0 -0 -0 0 0 0 0 0 0 0 0 0 0 0 0 0 0 0 0 0 0 0 0 0 0 0 0 0 0 0 0 0 0 0 0 0 0 0 0 0 0
0 0 0 -0 -0 0 0 0 0 0 0 0 0 0 0 0 0 0 0 0 0 0 0 0 0 0 0 0 0 0 0 0 0 0 0 0 0 0 0 0 0 0 0 0
0 0 0 0 0 0 0 0 0 0 0 0 0 0 0 0 0 0 0 0 0 0 0 0 0 0 0 0 0 0 0 0 0 0 0 0 0 0 0 0 0 0 0 0
0 0 0 0 0 0 0 0 0 0 0 0 0 0 0 0 0 0 0 0 0 0 0 0 0 0 0 0 0 0 0 0 0 0 0 0 0 0 0 0 0 0 0 0
0 0 -0 0 0 0 0 0 0 0 0 0 0 0 0 0 0 0 0 0 0 0 0 0 0 0 0 0 0 0 0 0 0 0 0 0 0 0 0 0 0 0 0 0
-0 -0 0 0 -0 0 0 0 0 0 0 0 0 0 0 0 0 0 0 0 0 0 0 0 0 0 0 0 0 0 0 0 0 0 0 0 0 -0 0 0 0 0 0 0
-0 -0 -0 -0 0 0 0 0 0 0 0 0 0 0 0 0 0 0 0 0 0 0 0 0 0 0 0 0 0 0 0 0 0 0 0 0 0 0 0 0 0 0 0 0
-0 -0 -0 -0 -0 0 0 0 0 0 0 0 0 0 0 0 0 0 0 0 0 0 0 0 0 0 0 0 0 0 0 0 0 0 0 0 0 0 0 0 0 0 0 0
-0 0 0 0 -0 0 0 -0 0 0 0 0 0 0 0 0 0 0 0 0 0 0 0 0 0 0 0 0 0 0 0 0 0 0 0 0 0 0 0 0 0 0 0 0
0 0 0 0 0 0 0 0 0 0 0 0 0 0 0 0 0 0 0 0 0 0 0 0 0 0 0 0 0 0 0 0 0 0 0 0 0 0 0 0 0 0 0 0
0 0 0 0 0 0 0 0 0 0 0 0 0 0 0 0 0 0 0 0 0 0 0 0 0 0 0 0 0 0 0 0 0 0 0 0 0 0 0 0 0 0 0 0
0 0 0 0 0 0 0 0 0 0 0 0 0 0 0 0 0 0 0 0 0 0 0 0 0 0 0 0 0 0 0 0 0 0 0 0 0 0 -0 -0 -0 0 0 0
0 0 0 0 0 0 0 0 0 0 0 0 0 0 0 0 0 0 0 0 0 0 0 0 0 0 0 0 0 0 0 0 0 0 0 0 0 -0 -0 -0 -0 0 0 -0
0 0 0 0 0 0 0 0 0 0 0 0 0 0 0 0 0 0 0 0 0 0 0 0 0 0 0 0 0 0 0 0 0 0 0 0 0 -0 -0 0 0 0 0 0
0 0 0 0 0 0 0 0 0 0 0 0 0 0 0 0 0 0 0 0 0 0 0 0 0 0 0 0 0 0 0 0 0 0 0 0 0 0 0 0 0 0 0 0
0 0 0 0 0 0 0 0 0 0 0 0 0 0 0 0 0 0 0 0 0 0 0 0 0 0 0 0 0 0 0 0 0 0 0 0 0 0 0 0 0 0 0 -0
0 0 0 0 0 0 0 0 0 0 0 0 0 0 0 0 0 0 0 0 0 0 0 0 0 0 0 0 0 0 0 0 0 0 0 0 0 0 0 0 0 0 0 0
Wind_Speed_500mb
91 87 79 74 96 85 77 38 6 73 88 16 5 17 15 20 29 30 9 23 13 39 48 49 31 28 15 39 44 23 12 6 5 4 5 10 3 8 14 8 11 5 6 11
88 106 92 83 95 95 85 21 12 64 36 10 10 14 10 24 40 22 21 16 12 31 32 20 22 20 8 47 36 35 20 7 6 9 4 15 10 9 10 12 6 9 8 10
91 126 116 96 96 96 71 9 7 15 20 4 20 33 12 21 26 10 11 25 20 39 40 12 25 12 1 6 30 29 35 8 9 5 12 6 9 31 31 27 5 7 14 18
117 131 122 112 100 91 63 4 7 9 8 9 16 29 32 22 12 9 31 15 29 31 12 7 7 18 10 4 18 22 15 10 9 12 7 12 15 13 27 39 36 16 39 35
119 125 127 109 113 102 26 14 12 10 8 20 21 30 33 39 16 11 16 21 32 19 19 13 26 20 12 8 4 10 4 2 3 4 1 2 16 14 13 27 26 19 39 44
128 129 120 118 110 103 14 18 26 18 17 11 6 20 31 29 27 10 23 48 32 21 21 24 28 28 26 18 15 14 13 8 5 5 2 7 4 27 20 10 17 19 27 46
116 124 115 115 109 69 25 31 19 14 7 13 8 33 37 36 15 41 35 45 24 27 73 65 55 51 43 27 8 3 12 12 4 3 7 5 13 6 26 33 34 29 30 37
116 114 113 111 87 40 30 31 17 14 14 9 19 38 33 39 52 18 16 12 48 60 47 14 13 8 10 10 14 17 12 9 4 8 7 9 17 9 10 11 15 16 21 28
90 95 98 92 62 22 25 18 20 27 20 5 44 37 47 36 21 10 25 59 45 16 7 8 8 10 9 8 5 10 11 12 5 4 6 12 8 3 11 9 7 38 37 27
84 87 80 79 59 24 15 31 41 47 23 16 20 10 25 25 28 12 13 12 13 12 5 6 5 3 5 9 15 11 9 5 11 7 5 14 9 3 7 11 6 27 36 34
70 73 81 68 39 10 24 30 39 51 31 33 18 15 20 42 29 19 28 16 6 6 7 7 5 6 9 7 11 11 12 13 7 6 5 11 4 9 5 10 23 33 32 33
51 61 59 57 38 16 28 39 36 70 47 33 45 42 34 28 26 56 23 9 12 13 8 3 7 5 4 9 5 6 6 10 9 14 8 9 40 45 26 21 14 28 34 42
46 44 39 36 40 33 36 52 53 53 48 41 30 33 35 25 37 47 15 9 12 12 14 8 4 7 6 7 7 5 3 2 5 8 15 17 36 25 28 39 26 31 37 49
53 42 39 38 35 37 51 74 57 51 27 10 21 33 40 29 19 21 17 30 28 35 22 10 6 6 2 3 6 6 2 5 4 1 16 22 30 31 54 42 43 49 53 53
30 36 38 31 31 38 46 47 45 24 13 11 11 35 43 33 28 27 31 38 44 18 10 7 5 6 7 3 5 6 14 7 2 4 12 10 18 48 45 46 55 63 70 80
48 42 37 38 47 48 49 20 19 11 48 20 6 12 25 37 40 40 38 36 27 16 12 9 8 6 4 5 5 7 10 8 7 1 22 27 27 20 21 52 57 60 61 60
49 42 31 24 24 25 2 15 26 29 25 16 8 6 11 15 19 22 29 26 21 15 10 8 6 6 9 4 5 17 5 1 6 10 19 4 19 31 50 53 56 57 62 59
45 48 48 45 45 52 50 35 28 23 20 17 7 2 5 14 11 9 15 12 11 18 10 7 7 4 6 2 16 12 3 7 5 4 21 21 32 35 39 42 48 53 56 58
22 22 22 23 23 19 19 29 36 32 16 14 9 4 4 9 8 7 8 8 7 8 5 5 6 4 5 7 21 13 6 3 9 14 14 14 25 30 35 41 46 49 52 55
17 14 12 13 16 17 13 8 7 15 21 18 6 5 3 11 4 7 3 7 4 4 3 5 6 4 14 17 9 7 6 7 7 7 5 19 23 30 34 37 38 39 43 48
16 15 11 14 19 13 13 14 18 20 10 18 12 18 5 12 6 3 8 4 3 5 5 6 2 7 10 22 9 7 6 3 6 10 11 13 16 22 27 28 28 32 35 40
22 12 13 14 14 13 15 4 7 12 2 12 7 11 8 7 7 5 5 5 6 3 7 6 6 5 26 24 16 10 5 4 2 2 5 7 11 13 14 18 24 29 34 35
14 11 9 17 17 20 11 7 7 6 10 12 12 4 6 6 8 8 5 8 4 9 4 8 7 22 28 19 15 12 9 6 2 1 3 3 6 12 12 13 15 22 26 28
8 13 14 8 9 8 5 3 3 2 4 5 5 4 6 6 6 2 9 2 6 2 3 12 5 33 23 19 16 13 11 8 5 3 1 2 6 8 10 12 15 19 22 27
13 13 9 7 6 5 5 8 6 5 5 5 4 5 4 5 7 3 7 7 6 11 9 4 20 28 22 20 17 15 14 12 10 7 4 0 4 6 9 12 14 18 22 26
12 15 11 9 5 3 4 7 2 3 5 5 5 2 6 4 5 5 11 10 11 8 5 18 30 29 26 23 19 16 14 12 10 8 5 4 5 5 6 12 15 20 25 29
10 10 17 14 12 10 6 5 2 5 3 3 4 8 10 2 5 5 6 9 5 9 16 25 26 26 26 24 21 18 16 12 10 9 8 6 6 6 8 12 16 21 24 27
Wind_Direction_500mb
229 211 204 200 193 190 186 176 214 177 175 171 131 153 135 153 185 144 153 136 112 175 177 189 185 203 172 155 157 180 143 155 233 19 192 321 183 149 181 210 156 239 118 267
205 199 188 188 187 179 177 187 146 166 162 124 143 111 131 148 169 156 145 138 164 146 167 178 197 177 1 164 165 164 158 176 163 169 307 157 206 198 265 300 63 190 142 268
200 188 185 182 180 179 175 153 122 101 148 100 139 129 140 145 158 88 72 120 134 148 163 53 171 118 104 48 181 156 164 168 171 139 41 91 193 190 205 227 183 176 230 247
183 179 181 183 179 176 166 134 63 116 144 138 132 129 145 131 141 103 126 139 157 134 124 81 154 107 112 97 125 145 157 184 218 258 193 124 298 231 202 207 222 212 247 252
171 174 173 175 168 170 149 125 127 84 143 97 150 143 171 151 120 151 167 143 144 123 149 158 167 129 136 165 207 177 146 230 181 274 294 321 175 229 266 230 243 251 259 270
158 163 163 162 165 167 159 132 134 114 141 127 164 160 160 141 131 77 135 126 110 123 124 134 133 119 117 147 151 180 158 118 102 257 143 71 349 228 227 252 244 233 251 259
152 150 154 160 159 171 171 142 129 98 119 136 215 157 133 135 115 125 125 118 109 132 112 99 80 63 52 61 80 23 144 119 93 163 53 204 239 183 207 227 244 249 263 271
140 147 150 154 156 159 165 157 137 106 120 159 155 133 127 123 107 79 79 57 140 127 103 80 69 20 42 20 13 19 29 144 120 161 190 312 309 246 197 175 260 247 254 269
144 150 154 158 161 149 146 156 145 130 118 31 149 128 132 130 120 64 94 117 139 115 75 83 121 172 150 161 84 15 48 49 111 112 180 216 256 328 215 131 282 28 28 30
147 152 155 161 166 159 130 131 148 138 92 55 108 110 131 131 100 100 104 114 70 65 100 87 125 134 140 154 153 163 140 143 203 185 219 275 246 308 49 127 245 29 27 24
153 162 168 169 183 168 141 110 146 143 100 60 73 104 98 121 131 145 164 95 16 48 82 120 166 120 211 112 165 178 154 155 180 163 191 285 29 104 178 7 28 13 9 8
158 164 174 187 199 218 179 122 109 132 110 108 91 88 97 99 117 133 156 129 133 147 98 96 108 108 126 155 206 213 163 174 182 179 168 75 63 92 77 41 29 8 355 343
154 151 167 179 195 189 185 150 138 134 99 73 82 57 81 109 132 147 120 149 122 124 114 132 135 123 134 149 235 114 275 312 154 85 2 85 103 83 38 14 6 340 333 329
124 135 140 141 158 160 165 140 138 137 113 90 52 84 67 91 122 161 155 153 133 125 121 88 107 122 184 137 156 131 337 353 223 206 58 113 70 23 353 344 334 329 328 328
128 120 117 134 152 154 146 130 125 103 109 126 114 71 65 86 94 111 128 144 141 110 80 64 92 123 92 14 61 70 11 24 49 121 54 341 298 325 335 335 338 331 326 320
87 100 114 115 119 118 114 80 63 100 122 102 76 60 53 81 93 112 116 122 111 94 86 91 84 79 63 111 127 99 90 78 50 344 307 294 303 326 310 325 326 324 321 318
88 97 113 129 146 155 187 109 133 133 110 89 91 55 30 43 63 69 64 76 68 75 89 64 69 39 31 90 171 146 166 318 342 303 340 120 320 321 330 328 325 323 321 324
80 87 96 105 104 101 83 90 102 111 96 83 103 127 62 29 43 44 36 41 48 46 84 66 41 44 36 138 139 147 223 344 120 268 327 308 312 323 330 331 333 334 334 334
58 68 78 87 71 59 62 75 75 72 96 105 67 85 159 33 67 81 52 52 60 40 73 43 38 339 226 134 155 176 210 176 238 301 324 343 336 343 345 347 347 342 341 341
31 31 28 46 14 24 27 42 59 43 39 52 85 4 29 24 32 66 53 33 89 83 295 26 59 266 143 166 161 198 231 263 288 341 356 351 355 351 351 357 350 338 343 342
39 41 54 28 29 26 35 45 39 359 37 25 39 36 27 37 60 102 38 113 83 121 263 109 279 281 191 193 213 233 247 303 332 346 355 352 347 347 354 354 350 347 353 354
49 54 38 25 25 45 70 28 14 40 104 5 30 351 38 23 64 81 3 93 39 166 155 80 264 206 163 181 196 199 196 201 243 353 7 347 342 334 348 345 358 2 2 357
31 32 40 12 355 39 57 6 356 44 359 360 18 10 14 36 59 62 77 85 179 153 90 223 220 161 171 180 180 182 179 169 159 292 318 321 322 303 321 347 0 8 7 2
50 34 29 58 4 49 45 29 66 98 357 348 40 11 49 24 44 332 88 277 83 70 251 236 212 178 173 176 180 176 170 163 162 178 223 28 317 306 331 344 7 10 3 6
58 39 55 58 127 80 80 80 69 48 45 50 347 30 48 354 73 28 89 43 253 203 233 221 169 173 176 174 177 176 177 177 173 176 175 239 293 313 330 342 5 4 358 358
53 60 86 125 133 108 72 85 61 68 83 79 61 92 54 3 112 64 213 152 224 239 182 170 171 173 174 175 175 175 178 179 178 185 209 253 285 299 336 335 353 354 352 353
57 55 92 102 83 112 151 145 83 78 79 65 33 63 212 10 32 278 197 209 227 182 166 171 179 179 174 172 171 174 181 192 215 240 247 251 269 303 332 318 338 345 344 347
Wind_Speed_850mb
91 87 79 74 96 85 77 38 6 73 88 16 5 17 15 20 29 30 9 23 13 39 48 49 31 28 15 39 44 23 12 6 5 4 5 10 3 8 14 8 11 5 6 11
88 106 92 83 95 95 85 21 12 64 36 10 10 14 10 24 40 22 21 16 12 31 32 20 22 20 8 47 36 35 20 7 6 9 4 15 10 9 10 12 6 9 8 10
91 126 116 96 96 96 71 9 7 15 20 4 20 33 12 21 26 10 11 25 20 39 40 12 25 12 1 6 30 29 35 8 9 5 12 6 9 31 31 27 5 7 14 18
117 131 122 112 100 91 63 4 7 9 8 9 16 29 32 22 12 9 31 15 29 31 12 7 7 18 10 4 18 22 15 10 9 12 7 12 15 13 27 39 36 16 39 35
119 125 127 109 113 102 26 14 12 10 8 20 21 30 33 39 16 11 16 21 32 19 19 13 26 20 12 8 4 10 4 2 3 4 1 2 16 14 13 27 26 19 39 44
128 129 120 118 110 103 14 18 26 18 17 11 6 20 31 29 27 10 23 48 32 21 21 24 28 28 26 18 15 14 13 8 5 5 2 7 4 27 20 10 17 19 27 46
116 124 115 115 109 69 25 31 19 14 7 13 8 33 37 36 15 41 35 45 24 27 73 65 55 51 43 27 8 3 12 12 4 3 7 5 13 6 26 33 34 29 30 37
116 114 113 111 87 40 30 31 17 14 14 9 19 38 33 39 52 18 16 12 48 60 47 14 13 8 10 10 14 17 12 9 4 8 7 9 17 9 10 11 15 16 21 28
90 95 98 92 62 22 25 18 20 27 20 5 44 37 47 36 21 10 25 59 45 16 7 8 8 10 9 8 5 10 11 12 5 4 6 12 8 3 11 9 7 38 37 27
84 87 80 79 59 24 15 31 41 47 23 16 20 10 25 25 28 12 13 12 13 12 5 6 5 3 5 9 15 11 9 5 11 7 5 14 9 3 7 11 6 27 36 34
70 73 81 68 39 10 24 30 39 51 31 33 18 15 20 42 29 19 28 16 6 6 7 7 5 6 9 7 11 11 12 13 7 6 5 11 4 9 5 10 23 33 32 33
51 61 59 57 38 16 28 39 36 70 47 33 45 42 34 28 26 56 23 9 12 13 8 3 7 5 4 9 5 6 6 10 9 14 8 9 40 45 26 21 14 28 34 42
46 44 39 36 40 33 36 52 53 53 48 41 30 33 35 25 37 47 15 9 12 12 14 8 4 7 6 7 7 5 3 2 5 8 15 17 36 25 28 39 26 31 37 49
53 42 39 38 35 37 51 74 57 51 27 10 21 33 40 29 19 21 17 30 28 35 22 10 6 6 2 3 6 6 2 5 4 1 16 22 30 31 54 42 43 49 53 53
30 36 38 31 31 38 46 47 45 24 13 11 11 35 43 33 28 27 31 38 44 18 10 7 5 6 7 3 5 6 14 7 2 4 12 10 18 48 45 46 55 63 70 80
48 42 37 38 47 48 49 20 19 11 48 20 6 12 25 37 40 40 38 36 27 16 12 9 8 6 4 5 5 7 10 8 7 1 22 27 27 20 21 52 57 60 61 60
49 42 31 24 24 25 2 15 26 29 25 16 8 6 11 15 19 22 29 26 21 15 10 8 6 6 9 4 5 17 5 1 6 10 19 4 19 31 50 53 56 57 62 59
45 48 48 45 45 52 50 35 28 23 20 17 7 2 5 14 11 9 15 12 11 18 10 7 7 4 6 2 16 12 3 7 5 4 21 21 32 35 39 42 48 53 56 58
22 22 22 23 23 19 19 29 36 32 16 14 9 4 4 9 8 7 8 8 7 8 5 5 6 4 5 7 21 13 6 3 9 14 14 14 25 30 35 41 46 49 52 55
17 14 12 13 16 17 13 8 7 15 21 18 6 5 3 11 4 7 3 7 4 4 3 5 6 4 14 17 9 7 6 7 7 7 5 19 23 30 34 37 38 39 43 48
16 15 11 14 19 13 13 14 18 20 10 18 12 18 5 12 6 3 8 4 3 5 5 6 2 7 10 22 9 7 6 3 6 10 11 13 16 22 27 28 28 32 35 40
22 12 13 14 14 13 15 4 7 12 2 12 7 11 8 7 7 5 5 5 6 3 7 6 6 5 26 24 16 10 5 4 2 2 5 7 11 13 14 18 24 29 34 35
14 11 9 17 17 20 11 7 7 6 10 12 12 4 6 6 8 8 5 8 4 9 4 8 7 22 28 19 15 12 9 6 2 1 3 3 6 12 12 13 15 22 26 28
8 13 14 8 9 8 5 3 3 2 4 5 5 4 6 6 6 2 9 2 6 2 3 12 5 33 23 19 16 13 11 8 5 3 1 2 6 8 10 12 15 19 22 27
13 13 9 7 6 5 5 8 6 5 5 5 4 5 4 5 7 3 7 7 6 11 9 4 20 28 22 20 17 15 14 12 10 7 4 0 4 6 9 12 14 18 22 26
12 15 11 9 5 3 4 7 2 3 5 5 5 2 6 4 5 5 11 10 11 8 5 18 30 29 26 23 19 16 14 12 10 8 5 4 5 5 6 12 15 20 25 29
10 10 17 14 12 10 6 5 2 5 3 3 4 8 10 2 5 5 6 9 5 9 16 25 26 26 26 24 21 18 16 12 10 9 8 6 6 6 8 12 16 21 24 27
Wind_Direction_850mb
229 211 204 200 193 190 186 176 214 177 175 171 131 153 135 153 185 144 153 136 112 175 177 189 185 203 172 155 157 180 143 155 233 19 192 321 183 149 181 210 156 239 118 267
205 199 188 188 187 179 177 187 146 166 162 124 143 111 131 148 169 156 145 138 164 146 167 178 197 177 1 164 165 164 158 176 163 169 307 157 206 198 265 300 63 190 142 268
200 188 185 182 180 179 175 153 122 101 148 100 139 129 140 145 158 88 72 120 134 148 163 53 171 118 104 48 181 156 164 168 171 139 41 91 193 190 205 227 183 176 230 247
183 179 181 183 179 176 166 134 63 116 144 138 132 129 145 131 141 103 126 139 157 134 124 81 154 107 112 97 125 145 157 184 218 258 193 124 298 231 202 207 222 212 247 252
171 174 173 175 168 170 149 125 127 84 143 97 150 143 171 151 120 151 167 143 144 123 149 158 167 129 136 165 207 177 146 230 181 274 294 321 175 229 266 230 243 251 259 270
158 163 163 162 165 167 159 132 134 114 141 127 164 160 160 141 131 77 135 126 110 123 124 134 133 119 117 147 151 180 158 118 102 257 143 71 349 228 227 252 244 233 251 259
152 150 154 160 159 171 171 142 129 98 119 136 215 157 133 135 115 125 125 118 109 132 112 99 80 63 52 61 80 23 144 119 93 163 53 204 239 183 207 227 244 249 263 271
140 147 150 154 156 159 165 157 137 106 120 159 155 133 127 123 107 79 79 57 140 127 103 80 69 20 42 20 13 19 29 144 120 161 190 312 309 246 197 175 260 247 254 269
144 150 154 158 161 149 146 156 145 130 118 31 149 128 132 130 120 64 94 117 139 115 75 83 121 172 150 161 84 15 48 49 111 112 180 216 256 328 215 131 282 28 28 30
147 152 155 161 166 159 130 131 148 138 92 55 108 110 131 131 100 100 104 114 70 65 100 87 125 134 140 154 153 163 140 143 203 185 219 275 246 308 49 127 245 29 27 24
153 162 168 169 183 168 141 110 146 143 100 60 73 104 98 121 131 145 164 95 16 48 82 120 166 120 211 112 165 178 154 155 180 163 191 285 29 104 178 7 28 13 9 8
158 164 174 187 199 218 179 122 109 132 110 108 91 88 97 99 117 133 156 129 133 147 98 96 108 108 126 155 206 213 163 174 182 179 168 75 63 92 77 41 29 8 355 343
154 151 167 179 195 189 185 150 138 134 99 73 82 57 81 109 132 147 120 149 122 124 114 132 135 123 134 149 235 114 275 312 154 85 2 85 103 83 38 14 6 340 333 329
124 135 140 141 158 160 165 140 138 137 113 90 52 84 67 91 122 161 155 153 133 125 121 88 107 122 184 137 156 131 337 353 223 206 58 113 70 23 353 344 334 329 328 328
128 120 117 134 152 154 146 130 125 103 109 126 114 71 65 86 94 111 128 144 141 110 80 64 92 123 92 14 61 70 11 24 49 121 54 341 298 325 335 335 338 331 326 320
87 100 114 115 119 118 114 80 63 100 122 102 76 60 53 81 93 112 116 122 111 94 86 91 84 79 63 111 127 99 90 78 50 344 307 294 303 326 310 325 326 324 321 318
88 97 113 129 146 155 187 109 133 133 110 89 91 55 30 43 63 69 64 76 68 75 89 64 69 39 31 90 171 146 166 318 342 303 340 120 320 321 330 328 325 323 321 324
80 87 96 105 104 101 83 90 102 111 96 83 103 127 62 29 43 44 36 41 48 46 84 66 41 44 36 138 139 147 223 344 120 268 327 308 312 323 330 331 333 334 334 334
58 68 78 87 71 59 62 75 75 72 96 105 67 85 159 33 67 81 52 52 60 40 73 43 38 339 226 134 155 176 210 176 238 301 324 343 336 343 345 347 347 342 341 341
31 31 28 46 14 24 27 42 59 43 39 52 85 4 29 24 32 66 53 33 89 83 295 26 59 266 143 166 161 198 231 263 288 341 356 351 355 351 351 357 350 338 343 342
39 41 54 28 29 26 35 45 39 359 37 25 39 36 27 37 60 102 38 113 83 121 263 109 279 281 191 193 213 233 247 303 332 346 355 352 347 347 354 354 350 347 353 354
49 54 38 25 25 45 70 28 14 40 104 5 30 351 38 23 64 81 3 93 39 166 155 80 264 206 163 181 196 199 196 201 243 353 7 347 342 334 348 345 358 2 2 357
31 32 40 12 355 39 57 6 356 44 359 360 18 10 14 36 59 62 77 85 179 153 90 223 220 161 171 180 180 182 179 169 159 292 318 321 322 303 321 347 0 8 7 2
50 34 29 58 4 49 45 29 66 98 357 348 40 11 49 24 44 332 88 277 83 70 251 236 212 178 173 176 180 176 170 163 162 178 223 28 317 306 331 344 7 10 3 6
58 39 55 58 127 80 80 80 69 48 45 50 347 30 48 354 73 28 89 43 253 203 233 221 169 173 176 174 177 176 177 177 173 176 175 239 293 313 330 342 5 4 358 358
53 60 86 125 133 108 72 85 61 68 83 79 61 92 54 3 112 64 213 152 224 239 182 170 171 173 174 175 175 175 178 179 178 185 209 253 285 299 336 335 353 354 352 353
57 55 92 102 83 112 151 145 83 78 79 65 33 63 212 10 32 278 197 209 227 182 166 171 179 179 174 172 171 174 181 192 215 240 247 251 269 303 332 318 338 345 344 347